Time,TemperatureF,DewpointF,PressureIn,WindDirection,WindDirectionDegrees,WindSpeedMPH,WindSpeedGustMPH,Humidity,HourlyPrecipIn,Conditions,Clouds,dailyrainin,SoftwareType,DateUTC
2013-02-22 00:00:00,16.2,7.8,30.09,NNE,23,0.0,0.0,69,0.00,,,0.00,VWS V13.00,2013-02-22 05:00:00,
2013-02-22 00:05:00,16.3,8.0,30.09,NNE,23,0.0,0.0,69,0.00,,,0.00,VWS V13.00,2013-02-22 05:05:00,
2013-02-22 00:10:00,16.3,8.3,30.09,NNE,23,0.0,0.0,70,0.00,,,0.00,VWS V13.00,2013-02-22 05:10:00,
2013-02-22 00:15:00,16.3,8.3,30.09,NNE,23,0.0,0.0,70,0.00,,,0.00,VWS V13.00,2013-02-22 05:15:00,
2013-02-22 00:20:00,16.3,8.3,30.09,NNE,23,0.0,0.0,70,0.00,,,0.00,VWS V13.00,2013-02-22 05:20:00,
2013-02-22 00:25:00,16.5,8.8,30.09,NNE,23,0.0,0.0,71,0.00,,,0.00,VWS V13.00,2013-02-22 05:25:00,
2013-02-22 00:30:00,16.7,8.9,30.09,NNE,23,0.0,0.0,71,0.00,,,0.00,VWS V13.00,2013-02-22 05:30:00,
2013-02-22 00:35:00,16.7,8.9,30.09,NNE,23,0.0,0.0,71,0.00,,,0.00,VWS V13.00,2013-02-22 05:35:00,
2013-02-22 00:40:00,16.7,9.3,30.09,NNE,26,0.0,0.0,72,0.00,,,0.00,VWS V13.00,2013-02-22 05:40:00,
2013-02-22 00:46:00,16.9,9.4,30.06,NNE,26,0.0,0.0,72,0.00,,,0.00,VWS V13.00,2013-02-22 05:46:00,
2013-02-22 00:51:00,16.9,9.4,30.06,NNE,26,0.0,0.0,72,0.00,,,0.00,VWS V13.00,2013-02-22 05:51:00,
2013-02-22 00:56:00,17.1,9.6,30.06,NNE,26,0.0,0.0,72,0.00,,,0.00,VWS V13.00,2013-02-22 05:56:00,
2013-02-22 01:01:00,17.2,10.1,30.06,NNE,26,0.0,0.0,73,0.00,,,0.00,VWS V13.00,2013-02-22 06:01:00,
2013-02-22 01:06:00,17.2,10.1,30.06,NNE,26,0.0,0.0,73,0.00,,,0.00,VWS V13.00,2013-02-22 06:06:00,
2013-02-22 01:11:00,17.2,10.1,30.06,NNE,26,0.0,0.0,73,0.00,,,0.00,VWS V13.00,2013-02-22 06:11:00,
2013-02-22 01:16:00,17.4,10.6,30.06,NNE,26,0.0,0.0,74,0.00,,,0.00,VWS V13.00,2013-02-22 06:16:00,
2013-02-22 01:21:00,17.4,10.6,30.06,NNE,26,0.0,0.0,74,0.00,,,0.00,VWS V13.00,2013-02-22 06:21:00,
2013-02-22 01:26:00,17.6,10.7,30.06,NNE,26,0.0,0.0,74,0.00,,,0.00,VWS V13.00,2013-02-22 06:26:00,
2013-02-22 01:31:00,17.8,10.9,30.06,NNE,26,0.0,0.0,74,0.00,,,0.00,VWS V13.00,2013-02-22 06:31:00,
2013-02-22 01:36:00,18.0,11.4,30.06,NNE,26,0.0,0.0,75,0.00,,,0.00,VWS V13.00,2013-02-22 06:36:00,
2013-02-22 01:41:00,18.0,11.4,30.06,NNE,26,0.0,0.0,75,0.00,,,0.00,VWS V13.00,2013-02-22 06:41:00,
2013-02-22 01:46:00,17.8,11.2,30.06,NNE,26,0.0,0.0,75,0.00,,,0.00,VWS V13.00,2013-02-22 06:46:00,
2013-02-22 01:51:00,17.8,11.2,30.06,NNE,26,0.0,0.0,75,0.00,,,0.00,VWS V13.00,2013-02-22 06:51:00,
2013-02-22 01:56:00,17.6,11.0,30.06,NNE,26,0.0,0.0,75,0.00,,,0.00,VWS V13.00,2013-02-22 06:56:00,
2013-02-22 02:01:00,17.6,11.0,30.06,NNE,26,0.0,0.0,75,0.00,,,0.00,VWS V13.00,2013-02-22 07:01:00,
2013-02-22 02:06:00,17.8,11.5,30.06,NNE,26,0.0,0.0,76,0.00,,,0.00,VWS V13.00,2013-02-22 07:06:00,
2013-02-22 02:11:00,18.0,11.7,30.06,NNE,26,0.0,0.0,76,0.00,,,0.00,VWS V13.00,2013-02-22 07:11:00,
2013-02-22 02:16:00,18.1,12.2,30.06,NNE,26,0.0,0.0,77,0.00,,,0.00,VWS V13.00,2013-02-22 07:16:00,
2013-02-22 02:21:00,18.1,12.2,30.06,NNE,26,0.0,0.0,77,0.00,,,0.00,VWS V13.00,2013-02-22 07:21:00,
2013-02-22 02:26:00,18.1,12.2,30.06,NNE,26,0.0,0.0,77,0.00,,,0.00,VWS V13.00,2013-02-22 07:26:00,
2013-02-22 02:31:00,18.3,12.3,30.06,NNE,26,0.0,0.0,77,0.00,,,0.00,VWS V13.00,2013-02-22 07:31:00,
2013-02-22 02:36:00,18.3,12.6,30.06,NNE,26,0.0,0.0,78,0.00,,,0.00,VWS V13.00,2013-02-22 07:36:00,
2013-02-22 02:41:00,18.5,12.8,30.06,NNE,26,0.0,0.0,78,0.00,,,0.00,VWS V13.00,2013-02-22 07:41:00,
2013-02-22 02:46:00,18.3,12.6,30.06,NNE,26,0.0,0.0,78,0.00,,,0.00,VWS V13.00,2013-02-22 07:46:00,
2013-02-22 02:51:00,18.0,12.0,30.06,NNE,26,0.0,0.0,77,0.00,,,0.00,VWS V13.00,2013-02-22 07:51:00,
2013-02-22 02:56:00,17.6,11.6,30.06,NNE,26,0.0,0.0,77,0.00,,,0.00,VWS V13.00,2013-02-22 07:56:00,
2013-02-22 03:01:00,17.2,11.0,30.06,NNE,26,0.0,0.0,76,0.00,,,0.00,VWS V13.00,2013-02-22 08:01:00,
2013-02-22 03:06:00,17.1,10.8,30.06,NNE,26,0.0,0.0,76,0.00,,,0.00,VWS V13.00,2013-02-22 08:06:00,
2013-02-22 03:11:00,16.9,10.9,30.03,NNE,26,0.0,0.0,77,0.00,,,0.00,VWS V13.00,2013-02-22 08:11:00,
2013-02-22 03:16:00,16.9,10.9,30.03,NNE,26,0.0,0.0,77,0.00,,,0.00,VWS V13.00,2013-02-22 08:16:00,
2013-02-22 03:21:00,16.9,10.9,30.03,NNE,26,0.0,0.0,77,0.00,,,0.00,VWS V13.00,2013-02-22 08:21:00,
2013-02-22 03:26:00,16.9,11.2,30.03,NNE,26,0.0,0.0,78,0.00,,,0.00,VWS V13.00,2013-02-22 08:26:00,
2013-02-22 03:31:00,17.1,11.4,30.03,NNE,26,0.0,0.0,78,0.00,,,0.00,VWS V13.00,2013-02-22 08:31:00,
2013-02-22 03:36:00,17.2,11.9,30.03,NNE,26,0.0,0.0,79,0.00,,,0.00,VWS V13.00,2013-02-22 08:36:00,
2013-02-22 03:42:00,16.9,11.5,30.03,NNE,26,0.0,0.0,79,0.00,,,0.00,VWS V13.00,2013-02-22 08:42:00,
2013-02-22 03:47:00,16.9,11.5,30.03,NNE,26,0.0,0.0,79,0.00,,,0.00,VWS V13.00,2013-02-22 08:47:00,
2013-02-22 03:51:00,16.9,11.5,30.03,NNE,26,0.0,0.0,79,0.00,,,0.00,VWS V13.00,2013-02-22 08:51:00,
2013-02-22 03:57:00,16.7,11.3,30.03,NNE,26,0.0,0.0,79,0.00,,,0.00,VWS V13.00,2013-02-22 08:57:00,
2013-02-22 04:02:00,16.7,11.3,30.03,NNE,26,0.0,0.0,79,0.00,,,0.00,VWS V13.00,2013-02-22 09:02:00,
2013-02-22 04:07:00,16.7,11.3,30.03,NNE,26,0.0,0.0,79,0.00,,,0.00,VWS V13.00,2013-02-22 09:07:00,
2013-02-22 04:12:00,16.7,11.3,30.03,NNE,26,0.0,0.0,79,0.00,,,0.00,VWS V13.00,2013-02-22 09:12:00,
2013-02-22 04:17:00,16.9,11.5,30.03,NNE,26,0.0,0.0,79,0.00,,,0.00,VWS V13.00,2013-02-22 09:17:00,
2013-02-22 04:22:00,16.9,11.8,30.03,NNE,26,0.0,0.0,80,0.00,,,0.00,VWS V13.00,2013-02-22 09:22:00,
2013-02-22 04:27:00,16.9,11.8,30.03,NNE,26,0.0,0.0,80,0.00,,,0.00,VWS V13.00,2013-02-22 09:27:00,
2013-02-22 04:32:00,16.9,11.8,30.03,NNE,26,0.0,0.0,80,0.00,,,0.00,VWS V13.00,2013-02-22 09:32:00,
2013-02-22 04:37:00,16.3,11.3,30.03,NNE,26,0.0,0.0,80,0.00,,,0.00,VWS V13.00,2013-02-22 09:37:00,
2013-02-22 04:42:00,16.3,11.0,30.03,NNE,26,0.0,0.0,79,0.00,,,0.00,VWS V13.00,2013-02-22 09:42:00,
2013-02-22 04:47:00,16.5,11.2,30.03,NNW,340,0.0,0.0,79,0.00,,,0.00,VWS V13.00,2013-02-22 09:47:00,
2013-02-22 04:52:00,16.7,11.3,30.03,NNW,340,0.0,0.0,79,0.00,,,0.00,VWS V13.00,2013-02-22 09:52:00,
2013-02-22 04:57:00,16.9,11.8,30.06,NNW,340,0.0,0.0,80,0.00,,,0.00,VWS V13.00,2013-02-22 09:57:00,
2013-02-22 05:02:00,16.7,11.6,30.06,NNW,340,0.0,0.0,80,0.00,,,0.00,VWS V13.00,2013-02-22 10:02:00,
2013-02-22 05:07:00,16.9,11.8,30.06,NNW,340,0.0,0.0,80,0.00,,,0.00,VWS V13.00,2013-02-22 10:07:00,
2013-02-22 05:12:00,16.7,11.6,30.06,NNW,340,0.0,0.0,80,0.00,,,0.00,VWS V13.00,2013-02-22 10:12:00,
2013-02-22 05:17:00,16.5,11.4,30.06,NNW,340,0.0,0.0,80,0.00,,,0.00,VWS V13.00,2013-02-22 10:17:00,
2013-02-22 05:22:00,16.5,11.4,30.06,NNW,340,0.0,0.0,80,0.00,,,0.00,VWS V13.00,2013-02-22 10:22:00,
2013-02-22 05:27:00,16.5,11.4,30.06,NNW,340,0.0,0.0,80,0.00,,,0.00,VWS V13.00,2013-02-22 10:27:00,
2013-02-22 05:32:00,16.5,11.7,30.06,NNW,340,0.0,0.0,81,0.00,,,0.00,VWS V13.00,2013-02-22 10:32:00,
2013-02-22 05:37:00,16.5,11.7,30.06,NNW,340,0.0,0.0,81,0.00,,,0.00,VWS V13.00,2013-02-22 10:37:00,
2013-02-22 05:42:00,16.5,11.7,30.06,NNW,340,0.0,0.0,81,0.00,,,0.00,VWS V13.00,2013-02-22 10:42:00,
2013-02-22 05:47:00,16.5,11.7,30.06,NNW,340,0.0,0.0,81,0.00,,,0.00,VWS V13.00,2013-02-22 10:47:00,
2013-02-22 05:52:00,16.7,11.9,30.06,NNW,340,0.0,0.0,81,0.00,,,0.00,VWS V13.00,2013-02-22 10:52:00,
2013-02-22 05:57:00,16.7,11.6,30.06,NNW,340,0.0,0.0,80,0.00,,,0.00,VWS V13.00,2013-02-22 10:57:00,
2013-02-22 06:02:00,16.5,11.7,30.06,NNW,340,0.0,0.0,81,0.00,,,0.00,VWS V13.00,2013-02-22 11:02:00,
2013-02-22 06:07:00,16.3,11.5,30.06,NNW,340,0.0,0.0,81,0.00,,,0.00,VWS V13.00,2013-02-22 11:07:00,
2013-02-22 06:12:00,16.0,11.2,30.09,NNW,340,0.0,0.0,81,0.00,,,0.00,VWS V13.00,2013-02-22 11:12:00,
2013-02-22 06:17:00,16.0,10.9,30.09,NNW,340,0.0,0.0,80,0.00,,,0.00,VWS V13.00,2013-02-22 11:17:00,
2013-02-22 06:22:00,16.3,11.3,30.09,NNW,340,0.0,0.0,80,0.00,,,0.00,VWS V13.00,2013-02-22 11:22:00,
2013-02-22 06:27:00,16.2,11.4,30.09,NNW,340,0.0,0.0,81,0.00,,,0.00,VWS V13.00,2013-02-22 11:27:00,
2013-02-22 06:32:00,16.0,11.2,30.09,NNW,340,0.0,0.0,81,0.00,,,0.00,VWS V13.00,2013-02-22 11:32:00,
2013-02-22 06:37:00,16.0,11.2,30.09,NNW,340,0.0,0.0,81,0.00,,,0.00,VWS V13.00,2013-02-22 11:37:00,
2013-02-22 06:42:00,16.0,11.2,30.09,NNW,340,0.0,0.0,81,0.00,,,0.00,VWS V13.00,2013-02-22 11:42:00,
2013-02-22 06:47:00,16.3,11.5,30.09,NNW,340,0.0,0.0,81,0.00,,,0.00,VWS V13.00,2013-02-22 11:47:00,
2013-02-22 06:52:00,16.5,11.7,30.09,NNW,340,0.0,0.0,81,0.00,,,0.00,VWS V13.00,2013-02-22 11:52:00,
2013-02-22 06:57:00,16.5,12.0,30.09,NNW,340,0.0,0.0,82,0.00,,,0.00,VWS V13.00,2013-02-22 11:57:00,
2013-02-22 07:02:00,16.5,12.0,30.09,NNW,340,0.0,0.0,82,0.00,,,0.00,VWS V13.00,2013-02-22 12:02:00,
2013-02-22 07:07:00,16.7,12.2,30.09,NNW,340,0.0,0.0,82,0.00,,,0.00,VWS V13.00,2013-02-22 12:07:00,
2013-02-22 07:12:00,16.7,11.9,30.11,NNW,340,0.0,0.0,81,0.00,,,0.00,VWS V13.00,2013-02-22 12:12:00,
2013-02-22 07:17:00,16.9,12.4,30.11,NNW,340,0.0,0.0,82,0.00,,,0.00,VWS V13.00,2013-02-22 12:17:00,
2013-02-22 07:22:00,16.9,12.4,30.11,NNW,340,0.0,0.0,82,0.00,,,0.00,VWS V13.00,2013-02-22 12:22:00,
2013-02-22 07:27:00,17.2,12.7,30.09,NNW,340,0.0,0.0,82,0.00,,,0.00,VWS V13.00,2013-02-22 12:27:00,
2013-02-22 07:32:00,17.2,12.7,30.09,NNW,340,0.0,0.0,82,0.00,,,0.00,VWS V13.00,2013-02-22 12:32:00,
2013-02-22 07:37:00,17.4,12.9,30.09,NNW,340,0.0,0.0,82,0.00,,,0.00,VWS V13.00,2013-02-22 12:37:00,
2013-02-22 07:43:00,18.0,13.4,30.09,NNW,340,0.0,0.0,82,0.00,,,0.00,VWS V13.00,2013-02-22 12:43:00,
2013-02-22 07:48:00,18.1,13.6,30.09,NNW,340,0.0,0.0,82,0.00,,,0.00,VWS V13.00,2013-02-22 12:48:00,
2013-02-22 07:53:00,18.3,13.8,30.09,NNW,340,0.0,0.0,82,0.00,,,0.00,VWS V13.00,2013-02-22 12:53:00,
2013-02-22 07:58:00,18.9,14.3,30.09,NNW,340,0.0,0.0,82,0.00,,,0.00,VWS V13.00,2013-02-22 12:58:00,
2013-02-22 08:03:00,19.2,14.6,30.09,NNW,340,0.0,0.0,82,0.00,,,0.00,VWS V13.00,2013-02-22 13:03:00,
2013-02-22 08:08:00,19.4,14.8,30.09,NNW,340,0.0,0.0,82,0.00,,,0.00,VWS V13.00,2013-02-22 13:08:00,
2013-02-22 08:13:00,19.6,15.0,30.09,NNW,340,0.0,0.0,82,0.00,,,0.00,VWS V13.00,2013-02-22 13:13:00,
2013-02-22 08:18:00,19.8,15.2,30.09,NNW,340,0.0,0.0,82,0.00,,,0.00,VWS V13.00,2013-02-22 13:18:00,
2013-02-22 08:23:00,19.9,15.3,30.09,NNW,340,0.0,0.0,82,0.00,,,0.00,VWS V13.00,2013-02-22 13:23:00,
2013-02-22 08:28:00,20.5,15.9,30.09,NNW,340,0.0,0.0,82,0.00,,,0.00,VWS V13.00,2013-02-22 13:28:00,
2013-02-22 08:33:00,20.8,16.2,30.09,NNW,340,0.0,0.0,82,0.00,,,0.00,VWS V13.00,2013-02-22 13:33:00,
2013-02-22 08:38:00,21.2,16.6,30.09,NNW,340,0.0,0.0,82,0.00,,,0.00,VWS V13.00,2013-02-22 13:38:00,
2013-02-22 08:43:00,21.7,17.1,30.09,NNW,340,0.0,0.0,82,0.00,,,0.00,VWS V13.00,2013-02-22 13:43:00,
2013-02-22 08:48:00,22.1,17.2,30.09,NNW,340,0.0,0.0,81,0.00,,,0.00,VWS V13.00,2013-02-22 13:48:00,
2013-02-22 08:53:00,22.8,17.0,30.09,SSW,213,0.0,0.0,78,0.00,,,0.00,VWS V13.00,2013-02-22 13:53:00,
2013-02-22 08:58:00,23.4,16.6,30.09,SSE,159,0.0,0.0,75,0.00,,,0.00,VWS V13.00,2013-02-22 13:58:00,
2013-02-22 09:03:00,23.9,16.5,30.09,South,186,0.0,0.0,73,0.00,,,0.00,VWS V13.00,2013-02-22 14:03:00,
2013-02-22 09:08:00,24.1,15.4,30.09,South,170,0.0,0.0,69,0.00,,,0.00,VWS V13.00,2013-02-22 14:08:00,
2013-02-22 09:13:00,24.4,14.4,30.09,SSW,195,0.0,0.0,65,0.00,,,0.00,VWS V13.00,2013-02-22 14:13:00,
2013-02-22 09:18:00,25.0,14.9,30.09,SSW,212,0.0,0.0,65,0.00,,,0.00,VWS V13.00,2013-02-22 14:18:00,
2013-02-22 09:23:00,25.2,14.4,30.09,SSW,212,0.0,0.0,63,0.00,,,0.00,VWS V13.00,2013-02-22 14:23:00,
2013-02-22 09:28:00,25.0,13.4,30.09,SW,232,0.0,0.0,61,0.00,,,0.00,VWS V13.00,2013-02-22 14:28:00,
2013-02-22 09:33:00,25.5,14.0,30.09,South,191,0.0,0.0,61,0.00,,,0.00,VWS V13.00,2013-02-22 14:33:00,
2013-02-22 09:38:00,25.5,13.6,30.09,SSW,197,0.0,0.0,60,0.00,,,0.00,VWS V13.00,2013-02-22 14:38:00,
2013-02-22 09:43:00,25.5,13.6,30.09,SSW,210,0.0,0.0,60,0.00,,,0.00,VWS V13.00,2013-02-22 14:43:00,
2013-02-22 09:48:00,25.9,13.5,30.09,SW,217,0.0,0.0,59,0.00,,,0.00,VWS V13.00,2013-02-22 14:48:00,
2013-02-22 09:53:00,26.1,13.7,30.09,SSW,205,0.0,0.0,59,0.00,,,0.00,VWS V13.00,2013-02-22 14:53:00,
2013-02-22 09:58:00,26.4,13.7,30.09,West,259,0.0,0.0,58,0.00,,,0.00,VWS V13.00,2013-02-22 14:58:00,
2013-02-22 10:03:00,26.8,13.2,30.09,SE,129,0.0,0.0,56,0.00,,,0.00,VWS V13.00,2013-02-22 15:03:00,
2013-02-22 10:08:00,27.1,13.1,30.09,ESE,104,0.0,0.0,55,0.00,,,0.00,VWS V13.00,2013-02-22 15:08:00,
2013-02-22 10:13:00,27.3,13.3,30.09,SSE,167,0.0,0.0,55,0.00,,,0.00,VWS V13.00,2013-02-22 15:13:00,
2013-02-22 10:18:00,27.7,12.8,30.09,West,279,0.0,0.0,53,0.00,,,0.00,VWS V13.00,2013-02-22 15:18:00,
2013-02-22 10:23:00,27.7,12.4,30.09,NW,322,0.0,0.0,52,0.00,,,0.00,VWS V13.00,2013-02-22 15:23:00,
2013-02-22 10:28:00,27.9,12.5,30.09,ENE,62,0.0,0.0,52,0.00,,,0.00,VWS V13.00,2013-02-22 15:28:00,
2013-02-22 10:33:00,28.0,12.3,30.09,North,356,0.0,0.0,51,0.00,,,0.00,VWS V13.00,2013-02-22 15:33:00,
2013-02-22 10:38:00,28.2,12.4,30.09,SW,234,0.0,0.0,51,0.00,,,0.00,VWS V13.00,2013-02-22 15:38:00,
2013-02-22 10:43:00,28.2,12.4,30.09,East,83,0.0,0.0,51,0.00,,,0.00,VWS V13.00,2013-02-22 15:43:00,
2013-02-22 10:48:00,28.0,10.9,30.09,North,356,0.0,3.1,48,0.00,,,0.00,VWS V13.00,2013-02-22 15:48:00,
2013-02-22 10:53:00,27.9,11.6,30.09,North,356,0.0,3.1,50,0.00,,,0.00,VWS V13.00,2013-02-22 15:53:00,
2013-02-22 10:59:00,28.0,11.8,30.09,SSE,149,0.0,2.7,50,0.00,,,0.00,VWS V13.00,2013-02-22 15:59:00,
2013-02-22 11:04:00,28.6,11.9,30.09,South,177,0.0,2.7,49,0.00,,,0.00,VWS V13.00,2013-02-22 16:04:00,
2013-02-22 11:09:00,28.9,11.7,30.09,SSW,198,0.0,2.7,48,0.00,,,0.00,VWS V13.00,2013-02-22 16:09:00,
2013-02-22 11:14:00,29.3,11.6,30.09,SSE,158,0.0,4.0,47,0.00,,,0.00,VWS V13.00,2013-02-22 16:14:00,
2013-02-22 11:19:00,29.5,11.3,30.09,East,88,0.0,0.0,46,0.00,,,0.00,VWS V13.00,2013-02-22 16:19:00,
2013-02-22 11:24:00,29.8,12.1,30.09,SSE,150,0.0,0.0,47,0.00,,,0.00,VWS V13.00,2013-02-22 16:24:00,
2013-02-22 11:29:00,30.0,11.8,30.09,NNE,31,0.0,0.0,46,0.00,,,0.00,VWS V13.00,2013-02-22 16:29:00,
2013-02-22 11:34:00,30.4,12.6,30.09,West,261,0.0,2.7,47,0.00,,,0.00,VWS V13.00,2013-02-22 16:34:00,
2013-02-22 11:39:00,30.4,11.6,30.09,South,178,0.0,0.0,45,0.00,,,0.00,VWS V13.00,2013-02-22 16:39:00,
2013-02-22 11:44:00,30.4,11.6,30.09,South,172,0.0,0.0,45,0.00,,,0.00,VWS V13.00,2013-02-22 16:44:00,
2013-02-22 11:49:00,30.4,11.6,30.09,North,351,0.0,0.0,45,0.00,,,0.00,VWS V13.00,2013-02-22 16:49:00,
2013-02-22 11:54:00,30.7,12.4,30.09,SE,146,0.0,3.1,46,0.00,,,0.00,VWS V13.00,2013-02-22 16:54:00,
2013-02-22 11:59:00,31.3,12.4,30.09,SW,234,2.7,2.7,45,0.00,,,0.00,VWS V13.00,2013-02-22 16:59:00,
2013-02-22 12:04:00,30.4,11.1,30.09,WSW,244,0.0,4.0,44,0.00,,,0.00,VWS V13.00,2013-02-22 17:04:00,
2013-02-22 12:09:00,30.7,11.9,30.09,SSE,166,0.0,4.0,45,0.00,,,0.00,VWS V13.00,2013-02-22 17:09:00,
2013-02-22 12:14:00,31.3,11.9,30.06,SSE,158,0.0,4.0,44,0.00,,,0.00,VWS V13.00,2013-02-22 17:14:00,
2013-02-22 12:19:00,31.3,11.9,30.06,South,170,0.0,0.0,44,0.00,,,0.00,VWS V13.00,2013-02-22 17:19:00,
2013-02-22 12:24:00,32.5,12.5,30.06,SSE,148,0.0,3.1,43,0.00,,,0.00,VWS V13.00,2013-02-22 17:24:00,
2013-02-22 12:29:00,32.5,12.5,30.06,ESE,106,0.0,3.1,43,0.00,,,0.00,VWS V13.00,2013-02-22 17:29:00,
2013-02-22 12:34:00,32.0,11.5,30.06,North,356,0.0,3.1,42,0.00,,,0.00,VWS V13.00,2013-02-22 17:34:00,
2013-02-22 12:39:00,32.0,12.1,30.06,SW,233,0.0,0.0,43,0.00,,,0.00,VWS V13.00,2013-02-22 17:39:00,
2013-02-22 12:44:00,31.3,11.4,30.06,NW,319,0.0,0.0,43,0.00,,,0.00,VWS V13.00,2013-02-22 17:44:00,
2013-02-22 12:49:00,31.1,11.2,30.06,SE,130,0.0,0.0,43,0.00,,,0.00,VWS V13.00,2013-02-22 17:49:00,
2013-02-22 12:54:00,31.8,12.4,30.06,SSE,149,0.0,0.0,44,0.00,,,0.00,VWS V13.00,2013-02-22 17:54:00,
2013-02-22 12:59:00,32.2,12.2,30.03,East,99,0.0,0.0,43,0.00,,,0.00,VWS V13.00,2013-02-22 17:59:00,
2013-02-22 13:04:00,32.2,12.2,30.03,East,97,0.0,0.0,43,0.00,,,0.00,VWS V13.00,2013-02-22 18:04:00,
2013-02-22 13:09:00,32.2,12.2,30.03,ESE,115,0.0,0.0,43,0.00,,,0.00,VWS V13.00,2013-02-22 18:09:00,
2013-02-22 13:14:00,32.2,12.2,30.03,NNW,341,0.0,0.0,43,0.00,,,0.00,VWS V13.00,2013-02-22 18:14:00,
2013-02-22 13:19:00,32.2,12.2,30.03,SW,226,0.0,0.0,43,0.00,,,0.00,VWS V13.00,2013-02-22 18:19:00,
2013-02-22 13:24:00,32.2,12.2,30.03,ESE,116,0.0,0.0,43,0.00,,,0.00,VWS V13.00,2013-02-22 18:24:00,
2013-02-22 13:29:00,32.5,12.5,30.03,SW,233,0.0,0.0,43,0.00,,,0.00,VWS V13.00,2013-02-22 18:29:00,
2013-02-22 13:34:00,32.2,12.2,30.03,ENE,66,0.0,0.0,43,0.00,,,0.00,VWS V13.00,2013-02-22 18:34:00,
2013-02-22 13:39:00,32.0,12.1,30.03,South,177,0.0,0.0,43,0.00,,,0.00,VWS V13.00,2013-02-22 18:39:00,
2013-02-22 13:44:00,31.8,11.9,30.03,East,94,0.0,0.0,43,0.00,,,0.00,VWS V13.00,2013-02-22 18:44:00,
2013-02-22 13:49:00,32.0,12.1,30.03,ENE,76,0.0,0.0,43,0.00,,,0.00,VWS V13.00,2013-02-22 18:49:00,
2013-02-22 13:54:00,32.2,12.2,30.03,NNW,327,0.0,0.0,43,0.00,,,0.00,VWS V13.00,2013-02-22 18:54:00,
2013-02-22 13:59:00,32.4,12.4,30.03,East,98,0.0,0.0,43,0.00,,,0.00,VWS V13.00,2013-02-22 18:59:00,
2013-02-22 14:04:00,32.2,12.2,30.03,North,7,0.0,0.0,43,0.00,,,0.00,VWS V13.00,2013-02-22 19:04:00,
2013-02-22 14:09:00,32.2,12.2,30.03,SSW,207,0.0,0.0,43,0.00,,,0.00,VWS V13.00,2013-02-22 19:09:00,
2013-02-22 14:14:00,32.0,12.1,30.03,NW,324,0.0,0.0,43,0.00,,,0.00,VWS V13.00,2013-02-22 19:14:00,
2013-02-22 14:19:00,32.2,12.7,30.03,South,172,0.0,0.0,44,0.00,,,0.00,VWS V13.00,2013-02-22 19:19:00,
2013-02-22 14:24:00,32.2,12.2,30.03,NE,40,0.0,0.0,43,0.00,,,0.00,VWS V13.00,2013-02-22 19:24:00,
2013-02-22 14:29:00,32.2,12.2,30.00,East,97,0.0,0.0,43,0.00,,,0.00,VWS V13.00,2013-02-22 19:29:00,
2013-02-22 14:34:00,32.2,12.2,30.00,NE,46,0.0,0.0,43,0.00,,,0.00,VWS V13.00,2013-02-22 19:34:00,
2013-02-22 14:39:00,32.2,12.2,30.00,NNW,339,0.0,0.0,43,0.00,,,0.00,VWS V13.00,2013-02-22 19:39:00,
2013-02-22 14:44:00,32.4,12.9,30.00,SSE,147,0.0,0.0,44,0.00,,,0.00,VWS V13.00,2013-02-22 19:44:00,
2013-02-22 14:49:00,32.5,13.1,30.00,SE,144,0.0,0.0,44,0.00,,,0.00,VWS V13.00,2013-02-22 19:49:00,
2013-02-22 14:54:00,32.5,12.5,30.00,SSW,203,0.0,0.0,43,0.00,,,0.00,VWS V13.00,2013-02-22 19:54:00,
2013-02-22 14:59:00,32.5,12.5,30.00,SSW,192,0.0,0.0,43,0.00,,,0.00,VWS V13.00,2013-02-22 19:59:00,
2013-02-22 15:04:00,32.4,12.4,30.00,WNW,294,0.0,0.0,43,0.04,,,0.04,VWS V13.00,2013-02-22 20:04:00,
2013-02-22 15:09:00,32.2,12.2,30.00,SSE,150,0.0,0.0,43,0.04,,,0.04,VWS V13.00,2013-02-22 20:09:00,
2013-02-22 15:14:00,32.2,12.2,30.00,NE,39,0.0,0.0,43,0.04,,,0.04,VWS V13.00,2013-02-22 20:14:00,
2013-02-22 15:19:00,32.2,12.2,30.00,NNW,346,0.0,0.0,43,0.04,,,0.04,VWS V13.00,2013-02-22 20:19:00,
2013-02-22 15:24:00,32.0,12.6,30.00,SE,130,0.0,0.0,44,0.04,,,0.04,VWS V13.00,2013-02-22 20:24:00,
2013-02-22 15:29:00,31.6,11.7,30.00,ENE,62,0.0,0.0,43,0.04,,,0.04,VWS V13.00,2013-02-22 20:29:00,
2013-02-22 15:34:00,31.3,11.4,30.00,NE,56,0.0,0.0,43,0.04,,,0.04,VWS V13.00,2013-02-22 20:34:00,
2013-02-22 15:39:00,31.1,11.8,30.00,East,97,0.0,0.0,44,0.04,,,0.04,VWS V13.00,2013-02-22 20:39:00,
2013-02-22 15:44:00,30.9,11.6,30.00,East,80,0.0,0.0,44,0.04,,,0.04,VWS V13.00,2013-02-22 20:44:00,
2013-02-22 15:50:00,30.9,11.6,30.00,ESE,104,0.0,0.0,44,0.04,,,0.04,VWS V13.00,2013-02-22 20:50:00,
2013-02-22 15:55:00,30.9,11.6,30.00,ENE,69,0.0,0.0,44,0.04,,,0.04,VWS V13.00,2013-02-22 20:55:00,
2013-02-22 16:00:00,30.6,11.2,29.97,NW,324,0.0,0.0,44,0.04,,,0.04,VWS V13.00,2013-02-22 21:00:00,
2013-02-22 16:05:00,30.4,11.6,29.97,NW,323,0.0,0.0,45,0.04,,,0.04,VWS V13.00,2013-02-22 21:05:00,
2013-02-22 16:10:00,30.4,11.6,29.97,SSE,161,0.0,0.0,45,0.04,,,0.04,VWS V13.00,2013-02-22 21:10:00,
2013-02-22 16:15:00,30.4,11.6,29.97,North,351,0.0,0.0,45,0.04,,,0.04,VWS V13.00,2013-02-22 21:15:00,
2013-02-22 16:20:00,30.2,11.4,29.97,East,79,0.0,0.0,45,0.00,,,0.04,VWS V13.00,2013-02-22 21:20:00,
2013-02-22 16:25:00,29.8,11.1,29.97,NNE,19,0.0,0.0,45,0.00,,,0.04,VWS V13.00,2013-02-22 21:25:00,
2013-02-22 16:30:00,29.5,11.3,29.97,NNE,17,0.0,0.0,46,0.00,,,0.04,VWS V13.00,2013-02-22 21:30:00,
2013-02-22 16:35:00,28.9,10.8,29.97,NW,325,0.0,0.0,46,0.00,,,0.04,VWS V13.00,2013-02-22 21:35:00,
2013-02-22 16:40:00,28.4,10.3,29.97,NNE,12,0.0,2.7,46,0.00,,,0.04,VWS V13.00,2013-02-22 21:40:00,
2013-02-22 16:45:00,28.2,10.1,29.97,South,176,0.0,2.7,46,0.00,,,0.04,VWS V13.00,2013-02-22 21:45:00,
2013-02-22 16:50:00,28.2,11.1,29.97,NNE,30,0.0,2.7,48,0.00,,,0.04,VWS V13.00,2013-02-22 21:50:00,
2013-02-22 16:55:00,28.4,11.7,29.97,ENE,63,0.0,2.7,49,0.00,,,0.04,VWS V13.00,2013-02-22 21:55:00,
2013-02-22 17:00:00,28.4,12.1,29.97,NE,41,0.0,0.0,50,0.00,,,0.04,VWS V13.00,2013-02-22 22:00:00,
2013-02-22 17:05:00,28.0,11.8,29.97,East,87,0.0,0.0,50,0.00,,,0.04,VWS V13.00,2013-02-22 22:05:00,
2013-02-22 17:10:00,27.9,11.6,29.97,SE,127,0.0,0.0,50,0.00,,,0.04,VWS V13.00,2013-02-22 22:10:00,
2013-02-22 17:15:00,27.9,12.1,29.97,SE,124,0.0,0.0,51,0.00,,,0.04,VWS V13.00,2013-02-22 22:15:00,
2013-02-22 17:20:00,27.9,12.1,29.97,SE,127,0.0,0.0,51,0.00,,,0.04,VWS V13.00,2013-02-22 22:20:00,
2013-02-22 17:25:00,27.7,12.4,29.97,SE,127,0.0,0.0,52,0.00,,,0.04,VWS V13.00,2013-02-22 22:25:00,
2013-02-22 17:30:00,27.7,12.4,29.97,South,190,0.0,0.0,52,0.00,,,0.04,VWS V13.00,2013-02-22 22:30:00,
2013-02-22 17:35:00,27.5,11.8,29.97,NE,47,0.0,0.0,51,0.00,,,0.04,VWS V13.00,2013-02-22 22:35:00,
2013-02-22 17:40:00,27.3,12.0,29.97,ENE,78,0.0,0.0,52,0.00,,,0.04,VWS V13.00,2013-02-22 22:40:00,
2013-02-22 17:45:00,27.1,11.9,29.97,NNE,26,0.0,0.0,52,0.00,,,0.04,VWS V13.00,2013-02-22 22:45:00,
2013-02-22 17:50:00,27.0,12.1,29.97,NE,43,0.0,0.0,53,0.00,,,0.04,VWS V13.00,2013-02-22 22:50:00,
2013-02-22 17:55:00,26.8,12.0,29.97,NE,42,0.0,0.0,53,0.00,,,0.04,VWS V13.00,2013-02-22 22:55:00,
2013-02-22 18:00:00,26.6,11.8,29.97,NE,42,0.0,0.0,53,0.00,,,0.04,VWS V13.00,2013-02-22 23:00:00,
2013-02-22 18:05:00,26.6,11.8,29.97,NE,42,0.0,0.0,53,0.00,,,0.04,VWS V13.00,2013-02-22 23:05:00,
2013-02-22 18:10:00,26.4,12.0,29.97,NE,34,0.0,0.0,54,0.00,,,0.04,VWS V13.00,2013-02-22 23:10:00,
2013-02-22 18:15:00,26.4,12.0,29.97,NNE,32,0.0,0.0,54,0.00,,,0.04,VWS V13.00,2013-02-22 23:15:00,
2013-02-22 18:20:00,26.6,12.6,29.97,NE,52,0.0,0.0,55,0.00,,,0.04,VWS V13.00,2013-02-22 23:20:00,
2013-02-22 18:25:00,26.6,12.6,29.97,NE,53,0.0,0.0,55,0.00,,,0.04,VWS V13.00,2013-02-22 23:25:00,
2013-02-22 18:30:00,26.6,12.2,29.97,SSE,150,0.0,0.0,54,0.00,,,0.04,VWS V13.00,2013-02-22 23:30:00,
2013-02-22 18:35:00,26.6,12.2,29.97,ESE,121,0.0,0.0,54,0.00,,,0.04,VWS V13.00,2013-02-22 23:35:00,
2013-02-22 18:40:00,26.6,12.2,29.97,SSE,156,0.0,0.0,54,0.00,,,0.04,VWS V13.00,2013-02-22 23:40:00,
2013-02-22 18:45:00,26.4,12.0,29.97,ESE,102,0.0,0.0,54,0.00,,,0.04,VWS V13.00,2013-02-22 23:45:00,
2013-02-22 18:50:00,26.4,12.0,29.97,SE,139,0.0,0.0,54,0.00,,,0.04,VWS V13.00,2013-02-22 23:50:00,
2013-02-22 18:55:00,26.4,12.0,29.97,SSE,161,0.0,0.0,54,0.00,,,0.04,VWS V13.00,2013-02-22 23:55:00,
2013-02-22 19:00:00,26.4,12.0,29.97,SSE,161,0.0,0.0,54,0.00,,,0.04,VWS V13.00,2013-02-23 00:00:00,
2013-02-22 19:05:00,26.2,11.9,29.97,SE,137,0.0,0.0,54,0.00,,,0.04,VWS V13.00,2013-02-23 00:05:00,
2013-02-22 19:11:00,26.2,11.9,29.97,SE,139,0.0,0.0,54,0.00,,,0.04,VWS V13.00,2013-02-23 00:11:00,
2013-02-22 19:16:00,26.2,11.9,29.97,SE,126,0.0,0.0,54,0.00,,,0.04,VWS V13.00,2013-02-23 00:16:00,
2013-02-22 19:21:00,26.2,11.4,29.97,SE,128,0.0,0.0,53,0.00,,,0.04,VWS V13.00,2013-02-23 00:21:00,
2013-02-22 19:26:00,26.6,11.4,29.97,SE,126,0.0,0.0,52,0.00,,,0.04,VWS V13.00,2013-02-23 00:26:00,
2013-02-22 19:31:00,26.8,11.1,29.97,North,356,0.0,0.0,51,0.00,,,0.04,VWS V13.00,2013-02-23 00:31:00,
2013-02-22 19:36:00,26.8,11.5,29.97,SE,126,0.0,0.0,52,0.00,,,0.04,VWS V13.00,2013-02-23 00:36:00,
2013-02-22 19:41:00,26.6,11.8,29.94,SE,124,0.0,0.0,53,0.00,,,0.04,VWS V13.00,2013-02-23 00:41:00,
2013-02-22 19:46:00,26.6,11.8,29.94,SE,124,0.0,0.0,53,0.00,,,0.04,VWS V13.00,2013-02-23 00:46:00,
2013-02-22 19:51:00,26.8,12.0,29.94,SE,127,0.0,0.0,53,0.00,,,0.04,VWS V13.00,2013-02-23 00:51:00,
2013-02-22 19:56:00,26.8,12.0,29.94,SE,126,0.0,0.0,53,0.00,,,0.04,VWS V13.00,2013-02-23 00:56:00,
2013-02-22 20:01:00,26.8,12.0,29.94,SE,124,0.0,0.0,53,0.00,,,0.04,VWS V13.00,2013-02-23 01:01:00,
2013-02-22 20:06:00,27.0,11.7,29.94,SE,124,0.0,0.0,52,0.00,,,0.04,VWS V13.00,2013-02-23 01:06:00,
2013-02-22 20:11:00,27.1,11.9,29.94,SE,126,0.0,0.0,52,0.00,,,0.04,VWS V13.00,2013-02-23 01:11:00,
2013-02-22 20:16:00,27.3,11.6,29.94,WSW,249,0.0,0.0,51,0.00,,,0.04,VWS V13.00,2013-02-23 01:16:00,
2013-02-22 20:21:00,28.0,10.9,29.94,SW,233,0.0,0.0,48,0.00,,,0.04,VWS V13.00,2013-02-23 01:21:00,
2013-02-22 20:26:00,28.2,11.5,29.94,WNW,290,0.0,0.0,49,0.00,,,0.04,VWS V13.00,2013-02-23 01:26:00,
2013-02-22 20:31:00,28.4,11.2,29.94,SW,221,0.0,0.0,48,0.00,,,0.04,VWS V13.00,2013-02-23 01:31:00,
2013-02-22 20:36:00,28.4,11.7,29.94,SSW,198,0.0,0.0,49,0.00,,,0.04,VWS V13.00,2013-02-23 01:36:00,
2013-02-22 20:41:00,28.6,11.9,29.94,SSE,167,0.0,0.0,49,0.00,,,0.04,VWS V13.00,2013-02-23 01:41:00,
2013-02-22 20:46:00,28.8,11.6,29.94,SE,124,0.0,0.0,48,0.00,,,0.04,VWS V13.00,2013-02-23 01:46:00,
2013-02-22 20:51:00,28.8,11.6,29.94,SSE,158,0.0,0.0,48,0.00,,,0.04,VWS V13.00,2013-02-23 01:51:00,
2013-02-22 20:56:00,28.8,11.6,29.94,SSE,156,0.0,0.0,48,0.00,,,0.04,VWS V13.00,2013-02-23 01:56:00,
2013-02-22 21:01:00,28.8,11.6,29.94,SSE,167,0.0,0.0,48,0.00,,,0.04,VWS V13.00,2013-02-23 02:01:00,
2013-02-22 21:06:00,29.1,11.4,29.94,SSE,166,0.0,0.0,47,0.00,,,0.04,VWS V13.00,2013-02-23 02:06:00,
2013-02-22 21:11:00,29.1,11.4,29.94,WSW,245,0.0,0.0,47,0.00,,,0.04,VWS V13.00,2013-02-23 02:11:00,
2013-02-22 21:16:00,29.3,11.1,29.94,WSW,243,0.0,0.0,46,0.00,,,0.04,VWS V13.00,2013-02-23 02:16:00,
2013-02-22 21:21:00,29.3,11.1,29.94,SSW,206,0.0,0.0,46,0.00,,,0.04,VWS V13.00,2013-02-23 02:21:00,
2013-02-22 21:26:00,29.3,11.1,29.94,SSW,205,0.0,0.0,46,0.00,,,0.04,VWS V13.00,2013-02-23 02:26:00,
2013-02-22 21:31:00,29.1,10.9,29.94,SW,224,0.0,0.0,46,0.00,,,0.04,VWS V13.00,2013-02-23 02:31:00,
2013-02-22 21:36:00,28.9,11.2,29.94,WSW,254,0.0,0.0,47,0.00,,,0.04,VWS V13.00,2013-02-23 02:36:00,
2013-02-22 21:41:00,28.8,11.1,29.94,WSW,253,0.0,0.0,47,0.00,,,0.04,VWS V13.00,2013-02-23 02:41:00,
2013-02-22 21:46:00,28.4,11.7,29.94,West,275,0.0,0.0,49,0.00,,,0.04,VWS V13.00,2013-02-23 02:46:00,
2013-02-22 21:51:00,28.8,11.6,29.94,North,4,0.0,7.4,48,0.00,,,0.04,VWS V13.00,2013-02-23 02:51:00,
2013-02-22 21:56:00,28.9,11.2,29.94,North,3,0.0,7.4,47,0.00,,,0.04,VWS V13.00,2013-02-23 02:56:00,
2013-02-22 22:01:00,28.8,11.6,29.94,ESE,110,0.0,5.8,48,0.00,,,0.04,VWS V13.00,2013-02-23 03:01:00,
2013-02-22 22:06:00,28.9,11.7,29.94,SE,124,0.0,5.8,48,0.00,,,0.04,VWS V13.00,2013-02-23 03:06:00,
2013-02-22 22:11:00,29.1,11.4,29.91,SSW,213,0.0,5.8,47,0.00,,,0.04,VWS V13.00,2013-02-23 03:11:00,
2013-02-22 22:16:00,29.3,11.6,29.91,SSW,200,0.0,5.8,47,0.00,,,0.04,VWS V13.00,2013-02-23 03:16:00,
2013-02-22 22:21:00,29.3,11.6,29.91,WSW,242,0.0,0.0,47,0.00,,,0.04,VWS V13.00,2013-02-23 03:21:00,
2013-02-22 22:26:00,29.3,11.1,29.91,SE,124,0.0,3.6,46,0.00,,,0.04,VWS V13.00,2013-02-23 03:26:00,
2013-02-22 22:31:00,29.3,11.6,29.91,SW,233,2.7,3.6,47,0.00,,,0.04,VWS V13.00,2013-02-23 03:31:00,
2013-02-22 22:36:00,29.1,11.4,29.91,WSW,239,0.0,4.5,47,0.00,,,0.04,VWS V13.00,2013-02-23 03:36:00,
2013-02-22 22:41:00,29.3,11.1,29.91,SE,136,0.0,5.8,46,0.00,,,0.04,VWS V13.00,2013-02-23 03:41:00,
2013-02-22 22:46:00,29.3,11.1,29.91,SSW,208,0.0,5.8,46,0.00,,,0.04,VWS V13.00,2013-02-23 03:46:00,
2013-02-22 22:51:00,29.5,11.3,29.91,SW,233,0.0,5.8,46,0.00,,,0.04,VWS V13.00,2013-02-23 03:51:00,
2013-02-22 22:56:00,29.5,11.3,29.91,SW,217,0.0,5.8,46,0.00,,,0.04,VWS V13.00,2013-02-23 03:56:00,
2013-02-22 23:01:00,29.5,11.3,29.91,SSW,199,0.0,0.0,46,0.00,,,0.04,VWS V13.00,2013-02-23 04:01:00,
2013-02-22 23:06:00,29.3,11.1,29.91,SW,231,0.0,2.7,46,0.00,,,0.04,VWS V13.00,2013-02-23 04:06:00,
2013-02-22 23:11:00,29.3,11.6,29.91,South,181,0.0,2.7,47,0.00,,,0.04,VWS V13.00,2013-02-23 04:11:00,
2013-02-22 23:16:00,29.1,12.4,29.91,WSW,248,0.0,2.7,49,0.00,,,0.04,VWS V13.00,2013-02-23 04:16:00,
2013-02-22 23:21:00,28.8,12.5,29.91,North,351,0.0,0.0,50,0.00,,,0.04,VWS V13.00,2013-02-23 04:21:00,
2013-02-22 23:26:00,28.8,12.9,29.91,NNW,336,0.0,0.0,51,0.00,,,0.04,VWS V13.00,2013-02-23 04:26:00,
2013-02-22 23:32:00,28.8,12.9,29.91,South,179,0.0,0.0,51,0.00,,,0.04,VWS V13.00,2013-02-23 04:32:00,
2013-02-22 23:37:00,28.8,12.9,29.91,South,190,0.0,0.0,51,0.00,,,0.04,VWS V13.00,2013-02-23 04:37:00,
2013-02-22 23:42:00,28.8,12.9,29.91,SSE,151,0.0,0.0,51,0.00,,,0.04,VWS V13.00,2013-02-23 04:42:00,
2013-02-22 23:47:00,28.9,12.2,29.91,East,90,0.0,2.7,49,0.00,,,0.04,VWS V13.00,2013-02-23 04:47:00,
2013-02-22 23:52:00,29.3,12.5,29.91,WSW,246,0.0,3.1,49,0.00,,,0.04,VWS V13.00,2013-02-23 04:52:00,
2013-02-22 23:57:00,29.7,11.4,29.91,SE,139,0.0,6.3,46,0.00,,,0.04,VWS V13.00,2013-02-23 04:57:00,